owner,sensor,date,latitude,longitude,vertical_datum,sea_water_practical_salinity,qcFlag 
WAVCIS,ioos:station:WAVCIS:CSI16:1,2009-11-01T00:00:00Z,29.4012,-89.0355,1.0,27.124,11111222 
WAVCIS,ioos:station:WAVCIS:CSI16:1,2009-11-01T00:15:00Z,29.4012,-89.0355,1.0,27.104,11111222 
WAVCIS,ioos:station:WAVCIS:CSI16:1,2009-11-01T00:30:00Z,29.4012,-89.0355,1.0,27.096,11111222 
WAVCIS,ioos:station:WAVCIS:CSI16:1,2009-11-01T00:45:00Z,29.4012,-89.0355,1.0,27.024,11111222 
WAVCIS,ioos:station:WAVCIS:CSI16:1,2009-11-01T01:00:00Z,29.4012,-89.0355,1.0,27.028,11111222 
WAVCIS,ioos:station:WAVCIS:CSI16:1,2009-11-01T01:15:00Z,29.4012,-89.0355,1.0,27.03,11111222 
WAVCIS,ioos:station:WAVCIS:CSI16:1,2009-11-01T01:30:00Z,29.4012,-89.0355,1.0,27.001,11111222 
WAVCIS,ioos:station:WAVCIS:CSI16:1,2009-11-01T01:45:00Z,29.4012,-89.0355,1.0,27.014,11111222 
WAVCIS,ioos:station:WAVCIS:CSI16:1,2009-11-01T02:00:00Z,29.4012,-89.0355,1.0,26.998,11111222 
WAVCIS,ioos:station:WAVCIS:CSI16:1,2009-11-01T02:15:00Z,29.4012,-89.0355,1.0,27.013,11111222 
WAVCIS,ioos:station:WAVCIS:CSI16:1,2009-11-01T02:30:00Z,29.4012,-89.0355,1.0,27.006,11111222 
WAVCIS,ioos:station:WAVCIS:CSI16:1,2009-11-01T02:45:00Z,29.4012,-89.0355,1.0,26.99,11111222 
WAVCIS,ioos:station:WAVCIS:CSI16:1,2009-11-01T03:00:00Z,29.4012,-89.0355,1.0,26.994,11111222 
WAVCIS,ioos:station:WAVCIS:CSI16:1,2009-11-01T03:15:00Z,29.4012,-89.0355,1.0,26.965,11111222 
WAVCIS,ioos:station:WAVCIS:CSI16:1,2009-11-01T03:30:00Z,29.4012,-89.0355,1.0,26.581,11111222 
WAVCIS,ioos:station:WAVCIS:CSI16:1,2009-11-01T03:45:00Z,29.4012,-89.0355,1.0,26.51,11111222 
WAVCIS,ioos:station:WAVCIS:CSI16:1,2009-11-01T04:00:00Z,29.4012,-89.0355,1.0,26.631,11111222 
WAVCIS,ioos:station:WAVCIS:CSI16:1,2009-11-01T04:15:00Z,29.4012,-89.0355,1.0,26.624,11111222 
WAVCIS,ioos:station:WAVCIS:CSI16:1,2009-11-01T04:30:00Z,29.4012,-89.0355,1.0,26.448,11111222 
WAVCIS,ioos:station:WAVCIS:CSI16:1,2009-11-01T04:45:00Z,29.4012,-89.0355,1.0,26.07,11111222 
WAVCIS,ioos:station:WAVCIS:CSI16:1,2009-11-01T05:00:00Z,29.4012,-89.0355,1.0,26.176,11111222 
WAVCIS,ioos:station:WAVCIS:CSI16:1,2009-11-01T05:15:00Z,29.4012,-89.0355,1.0,25.692,11111222 
WAVCIS,ioos:station:WAVCIS:CSI16:1,2009-11-01T05:30:00Z,29.4012,-89.0355,1.0,25.785,11111222 
WAVCIS,ioos:station:WAVCIS:CSI16:1,2009-11-01T05:45:00Z,29.4012,-89.0355,1.0,25.871,11111222 
WAVCIS,ioos:station:WAVCIS:CSI16:1,2009-11-01T06:00:00Z,29.4012,-89.0355,1.0,25.996,11111222 
WAVCIS,ioos:station:WAVCIS:CSI16:1,2009-11-01T06:15:00Z,29.4012,-89.0355,1.0,25.981,11111222 
WAVCIS,ioos:station:WAVCIS:CSI16:1,2009-11-01T06:30:00Z,29.4012,-89.0355,1.0,25.839,11111222 
WAVCIS,ioos:station:WAVCIS:CSI16:1,2009-11-01T06:45:00Z,29.4012,-89.0355,1.0,25.907,11111222 
WAVCIS,ioos:station:WAVCIS:CSI16:1,2009-11-01T07:00:00Z,29.4012,-89.0355,1.0,24.571,11111222 
WAVCIS,ioos:station:WAVCIS:CSI16:1,2009-11-01T07:15:00Z,29.4012,-89.0355,1.0,23.846,11111222 
WAVCIS,ioos:station:WAVCIS:CSI16:1,2009-11-01T07:30:00Z,29.4012,-89.0355,1.0,23.997,11111222 
WAVCIS,ioos:station:WAVCIS:CSI16:1,2009-11-01T07:45:00Z,29.4012,-89.0355,1.0,23.513,11111222 
WAVCIS,ioos:station:WAVCIS:CSI16:1,2009-11-01T08:00:00Z,29.4012,-89.0355,1.0,23.361,11111222 
WAVCIS,ioos:station:WAVCIS:CSI16:1,2009-11-01T08:15:00Z,29.4012,-89.0355,1.0,23.423,11111222 
WAVCIS,ioos:station:WAVCIS:CSI16:1,2009-11-01T08:30:00Z,29.4012,-89.0355,1.0,23.114,11111222 
WAVCIS,ioos:station:WAVCIS:CSI16:1,2009-11-01T08:45:00Z,29.4012,-89.0355,1.0,23.03,11111222 
WAVCIS,ioos:station:WAVCIS:CSI16:1,2009-11-01T09:00:00Z,29.4012,-89.0355,1.0,23.021,11111222 
WAVCIS,ioos:station:WAVCIS:CSI16:1,2009-11-01T09:15:00Z,29.4012,-89.0355,1.0,23.04,11111222 
WAVCIS,ioos:station:WAVCIS:CSI16:1,2009-11-01T09:30:00Z,29.4012,-89.0355,1.0,23.082,11111222 
WAVCIS,ioos:station:WAVCIS:CSI16:1,2009-11-01T09:45:00Z,29.4012,-89.0355,1.0,23.283,11111222 
WAVCIS,ioos:station:WAVCIS:CSI16:1,2009-11-01T10:00:00Z,29.4012,-89.0355,1.0,23.224,11111222 
WAVCIS,ioos:station:WAVCIS:CSI16:1,2009-11-01T10:15:00Z,29.4012,-89.0355,1.0,23.244,11111222 
WAVCIS,ioos:station:WAVCIS:CSI16:1,2009-11-01T10:30:00Z,29.4012,-89.0355,1.0,23.37,11111222 
WAVCIS,ioos:station:WAVCIS:CSI16:1,2009-11-01T10:45:00Z,29.4012,-89.0355,1.0,23.526,11111222 
WAVCIS,ioos:station:WAVCIS:CSI16:1,2009-11-01T11:00:00Z,29.4012,-89.0355,1.0,23.641,11111222 
WAVCIS,ioos:station:WAVCIS:CSI16:1,2009-11-01T11:15:00Z,29.4012,-89.0355,1.0,23.73,11111222 
WAVCIS,ioos:station:WAVCIS:CSI16:1,2009-11-01T11:30:00Z,29.4012,-89.0355,1.0,24.195,11111222 
WAVCIS,ioos:station:WAVCIS:CSI16:1,2009-11-01T11:45:00Z,29.4012,-89.0355,1.0,24.038,11111222 
WAVCIS,ioos:station:WAVCIS:CSI16:1,2009-11-01T12:00:00Z,29.4012,-89.0355,1.0,24.254,11111222 
WAVCIS,ioos:station:WAVCIS:CSI16:1,2009-11-01T12:15:00Z,29.4012,-89.0355,1.0,24.411,11111222 
WAVCIS,ioos:station:WAVCIS:CSI16:1,2009-11-01T12:30:00Z,29.4012,-89.0355,1.0,23.9,11111222 
WAVCIS,ioos:station:WAVCIS:CSI16:1,2009-11-01T12:45:00Z,29.4012,-89.0355,1.0,23.888,11111222 
WAVCIS,ioos:station:WAVCIS:CSI16:1,2009-11-01T13:00:00Z,29.4012,-89.0355,1.0,24.056,11111222 
WAVCIS,ioos:station:WAVCIS:CSI16:1,2009-11-01T13:15:00Z,29.4012,-89.0355,1.0,24.103,11111222 
WAVCIS,ioos:station:WAVCIS:CSI16:1,2009-11-01T13:30:00Z,29.4012,-89.0355,1.0,23.929,11111222 
WAVCIS,ioos:station:WAVCIS:CSI16:1,2009-11-01T13:45:00Z,29.4012,-89.0355,1.0,24.082,11111222 
WAVCIS,ioos:station:WAVCIS:CSI16:1,2009-11-01T14:00:00Z,29.4012,-89.0355,1.0,24.343,11111222 
WAVCIS,ioos:station:WAVCIS:CSI16:1,2009-11-01T14:15:00Z,29.4012,-89.0355,1.0,24.146,11111222 
WAVCIS,ioos:station:WAVCIS:CSI16:1,2009-11-01T14:30:00Z,29.4012,-89.0355,1.0,24.247,11111222 
WAVCIS,ioos:station:WAVCIS:CSI16:1,2009-11-01T14:45:00Z,29.4012,-89.0355,1.0,24.642,11111222 
WAVCIS,ioos:station:WAVCIS:CSI16:1,2009-11-01T15:00:00Z,29.4012,-89.0355,1.0,25.341,11111222 
WAVCIS,ioos:station:WAVCIS:CSI16:1,2009-11-01T15:15:00Z,29.4012,-89.0355,1.0,26.017,11111222 
WAVCIS,ioos:station:WAVCIS:CSI16:1,2009-11-01T15:30:00Z,29.4012,-89.0355,1.0,26.044,11111222 
WAVCIS,ioos:station:WAVCIS:CSI16:1,2009-11-01T15:45:00Z,29.4012,-89.0355,1.0,26.353,11111222 
WAVCIS,ioos:station:WAVCIS:CSI16:1,2009-11-01T16:00:00Z,29.4012,-89.0355,1.0,27.222,11111222 
WAVCIS,ioos:station:WAVCIS:CSI16:1,2009-11-01T16:15:00Z,29.4012,-89.0355,1.0,27.253,11111222 
WAVCIS,ioos:station:WAVCIS:CSI16:1,2009-11-01T16:30:00Z,29.4012,-89.0355,1.0,26.872,11111222 
WAVCIS,ioos:station:WAVCIS:CSI16:1,2009-11-01T16:45:00Z,29.4012,-89.0355,1.0,26.679,11111222 
WAVCIS,ioos:station:WAVCIS:CSI16:1,2009-11-01T17:00:00Z,29.4012,-89.0355,1.0,27.468,11111222 
WAVCIS,ioos:station:WAVCIS:CSI16:1,2009-11-01T17:15:00Z,29.4012,-89.0355,1.0,27.429,11111222 
WAVCIS,ioos:station:WAVCIS:CSI16:1,2009-11-01T17:30:00Z,29.4012,-89.0355,1.0,27.362,11111222 
WAVCIS,ioos:station:WAVCIS:CSI16:1,2009-11-01T17:45:00Z,29.4012,-89.0355,1.0,26.731,11111222 
WAVCIS,ioos:station:WAVCIS:CSI16:1,2009-11-01T18:00:00Z,29.4012,-89.0355,1.0,26.789,11111222 
WAVCIS,ioos:station:WAVCIS:CSI16:1,2009-11-01T18:15:00Z,29.4012,-89.0355,1.0,26.593,11111222 
WAVCIS,ioos:station:WAVCIS:CSI16:1,2009-11-01T18:30:00Z,29.4012,-89.0355,1.0,26.721,11111222 
WAVCIS,ioos:station:WAVCIS:CSI16:1,2009-11-01T18:45:00Z,29.4012,-89.0355,1.0,27.02,11111222 
WAVCIS,ioos:station:WAVCIS:CSI16:1,2009-11-01T19:00:00Z,29.4012,-89.0355,1.0,27.783,11111222 
WAVCIS,ioos:station:WAVCIS:CSI16:1,2009-11-01T19:15:00Z,29.4012,-89.0355,1.0,27.908,11111222 
WAVCIS,ioos:station:WAVCIS:CSI16:1,2009-11-01T19:30:00Z,29.4012,-89.0355,1.0,28.062,11111222 
WAVCIS,ioos:station:WAVCIS:CSI16:1,2009-11-01T19:45:00Z,29.4012,-89.0355,1.0,28.287,11111222 
WAVCIS,ioos:station:WAVCIS:CSI16:1,2009-11-01T20:00:00Z,29.4012,-89.0355,1.0,28.85,11111222 
WAVCIS,ioos:station:WAVCIS:CSI16:1,2009-11-01T20:15:00Z,29.4012,-89.0355,1.0,28.864,11111222 
WAVCIS,ioos:station:WAVCIS:CSI16:1,2009-11-01T20:30:00Z,29.4012,-89.0355,1.0,28.776,11111222 
WAVCIS,ioos:station:WAVCIS:CSI16:1,2009-11-01T20:45:00Z,29.4012,-89.0355,1.0,28.617,11111222 
WAVCIS,ioos:station:WAVCIS:CSI16:1,2009-11-01T21:00:00Z,29.4012,-89.0355,1.0,28.676,11111222 
WAVCIS,ioos:station:WAVCIS:CSI16:1,2009-11-01T21:15:00Z,29.4012,-89.0355,1.0,28.782,11111222 
WAVCIS,ioos:station:WAVCIS:CSI16:1,2009-11-01T21:30:00Z,29.4012,-89.0355,1.0,28.808,11111222 
WAVCIS,ioos:station:WAVCIS:CSI16:1,2009-11-01T21:45:00Z,29.4012,-89.0355,1.0,28.854,11111222 
WAVCIS,ioos:station:WAVCIS:CSI16:1,2009-11-01T22:00:00Z,29.4012,-89.0355,1.0,28.276,11111222 
WAVCIS,ioos:station:WAVCIS:CSI16:1,2009-11-01T22:15:00Z,29.4012,-89.0355,1.0,28.22,11111222 
WAVCIS,ioos:station:WAVCIS:CSI16:1,2009-11-01T22:30:00Z,29.4012,-89.0355,1.0,28.237,11111222 
WAVCIS,ioos:station:WAVCIS:CSI16:1,2009-11-01T22:45:00Z,29.4012,-89.0355,1.0,28.211,11111222 
WAVCIS,ioos:station:WAVCIS:CSI16:1,2009-11-01T23:00:00Z,29.4012,-89.0355,1.0,28.302,11111222 
WAVCIS,ioos:station:WAVCIS:CSI16:1,2009-11-01T23:15:00Z,29.4012,-89.0355,1.0,28.227,11111222 
WAVCIS,ioos:station:WAVCIS:CSI16:1,2009-11-01T23:30:00Z,29.4012,-89.0355,1.0,28.24,11111222 
WAVCIS,ioos:station:WAVCIS:CSI16:1,2009-11-01T23:45:00Z,29.4012,-89.0355,1.0,28.24,11111222 
WAVCIS,ioos:station:WAVCIS:CSI16:1,2009-11-02T00:00:00Z,29.4012,-89.0355,1.0,28.935,11111222 
WAVCIS,ioos:station:WAVCIS:CSI16:1,2009-11-02T00:15:00Z,29.4012,-89.0355,1.0,28.964,11111222 
WAVCIS,ioos:station:WAVCIS:CSI16:1,2009-11-02T00:30:00Z,29.4012,-89.0355,1.0,29.235,11111222 
WAVCIS,ioos:station:WAVCIS:CSI16:1,2009-11-02T00:45:00Z,29.4012,-89.0355,1.0,29.054,11111222 
WAVCIS,ioos:station:WAVCIS:CSI16:1,2009-11-02T01:00:00Z,29.4012,-89.0355,1.0,29.093,11111222 
WAVCIS,ioos:station:WAVCIS:CSI16:1,2009-11-02T01:15:00Z,29.4012,-89.0355,1.0,29.184,11111222 
WAVCIS,ioos:station:WAVCIS:CSI16:1,2009-11-02T01:30:00Z,29.4012,-89.0355,1.0,29.223,11111222 
WAVCIS,ioos:station:WAVCIS:CSI16:1,2009-11-02T01:45:00Z,29.4012,-89.0355,1.0,29.16,11111222 
WAVCIS,ioos:station:WAVCIS:CSI16:1,2009-11-02T02:00:00Z,29.4012,-89.0355,1.0,29.081,11111222 
WAVCIS,ioos:station:WAVCIS:CSI16:1,2009-11-02T02:15:00Z,29.4012,-89.0355,1.0,28.934,11111222 
WAVCIS,ioos:station:WAVCIS:CSI16:1,2009-11-02T02:30:00Z,29.4012,-89.0355,1.0,28.354,11111222 
WAVCIS,ioos:station:WAVCIS:CSI16:1,2009-11-02T02:45:00Z,29.4012,-89.0355,1.0,27.977,11111222 
WAVCIS,ioos:station:WAVCIS:CSI16:1,2009-11-02T03:00:00Z,29.4012,-89.0355,1.0,27.962,11111222 
WAVCIS,ioos:station:WAVCIS:CSI16:1,2009-11-02T03:15:00Z,29.4012,-89.0355,1.0,27.794,11111222 
WAVCIS,ioos:station:WAVCIS:CSI16:1,2009-11-02T03:30:00Z,29.4012,-89.0355,1.0,27.722,11111222 
WAVCIS,ioos:station:WAVCIS:CSI16:1,2009-11-02T03:45:00Z,29.4012,-89.0355,1.0,27.651,11111222 
WAVCIS,ioos:station:WAVCIS:CSI16:1,2009-11-02T04:00:00Z,29.4012,-89.0355,1.0,27.563,11111222 
WAVCIS,ioos:station:WAVCIS:CSI16:1,2009-11-02T04:15:00Z,29.4012,-89.0355,1.0,27.629,11111222 
WAVCIS,ioos:station:WAVCIS:CSI16:1,2009-11-02T04:30:00Z,29.4012,-89.0355,1.0,27.615,11111222 
WAVCIS,ioos:station:WAVCIS:CSI16:1,2009-11-02T04:45:00Z,29.4012,-89.0355,1.0,27.724,11111222 
WAVCIS,ioos:station:WAVCIS:CSI16:1,2009-11-02T05:00:00Z,29.4012,-89.0355,1.0,27.706,11111222 
WAVCIS,ioos:station:WAVCIS:CSI16:1,2009-11-02T05:15:00Z,29.4012,-89.0355,1.0,27.894,11111222 
WAVCIS,ioos:station:WAVCIS:CSI16:1,2009-11-02T05:30:00Z,29.4012,-89.0355,1.0,27.733,11111222 
WAVCIS,ioos:station:WAVCIS:CSI16:1,2009-11-02T05:45:00Z,29.4012,-89.0355,1.0,27.742,11111222 
WAVCIS,ioos:station:WAVCIS:CSI16:1,2009-11-02T06:00:00Z,29.4012,-89.0355,1.0,27.76,11111222 
WAVCIS,ioos:station:WAVCIS:CSI16:1,2009-11-02T06:15:00Z,29.4012,-89.0355,1.0,27.71,11111222 
WAVCIS,ioos:station:WAVCIS:CSI16:1,2009-11-02T06:30:00Z,29.4012,-89.0355,1.0,27.635,11111222 
WAVCIS,ioos:station:WAVCIS:CSI16:1,2009-11-02T06:45:00Z,29.4012,-89.0355,1.0,27.34,11111222 
WAVCIS,ioos:station:WAVCIS:CSI16:1,2009-11-02T07:00:00Z,29.4012,-89.0355,1.0,27.207,11111222 
WAVCIS,ioos:station:WAVCIS:CSI16:1,2009-11-02T07:15:00Z,29.4012,-89.0355,1.0,26.882,11111222 
WAVCIS,ioos:station:WAVCIS:CSI16:1,2009-11-02T07:30:00Z,29.4012,-89.0355,1.0,26.768,11111222 
WAVCIS,ioos:station:WAVCIS:CSI16:1,2009-11-02T07:45:00Z,29.4012,-89.0355,1.0,26.462,11111222 
WAVCIS,ioos:station:WAVCIS:CSI16:1,2009-11-02T08:00:00Z,29.4012,-89.0355,1.0,26.194,11111222 
WAVCIS,ioos:station:WAVCIS:CSI16:1,2009-11-02T08:15:00Z,29.4012,-89.0355,1.0,26.002,11111222 
WAVCIS,ioos:station:WAVCIS:CSI16:1,2009-11-02T08:30:00Z,29.4012,-89.0355,1.0,25.722,11111222 
WAVCIS,ioos:station:WAVCIS:CSI16:1,2009-11-02T08:45:00Z,29.4012,-89.0355,1.0,25.566,11111222 
WAVCIS,ioos:station:WAVCIS:CSI16:1,2009-11-02T09:00:00Z,29.4012,-89.0355,1.0,25.419,11111222 
WAVCIS,ioos:station:WAVCIS:CSI16:1,2009-11-02T09:15:00Z,29.4012,-89.0355,1.0,25.424,11111222 
WAVCIS,ioos:station:WAVCIS:CSI16:1,2009-11-02T09:30:00Z,29.4012,-89.0355,1.0,25.451,11111222 
WAVCIS,ioos:station:WAVCIS:CSI16:1,2009-11-02T09:45:00Z,29.4012,-89.0355,1.0,25.539,11111222 
WAVCIS,ioos:station:WAVCIS:CSI16:1,2009-11-02T10:00:00Z,29.4012,-89.0355,1.0,25.566,11111222 
WAVCIS,ioos:station:WAVCIS:CSI16:1,2009-11-02T10:15:00Z,29.4012,-89.0355,1.0,25.52,11111222 
WAVCIS,ioos:station:WAVCIS:CSI16:1,2009-11-02T10:30:00Z,29.4012,-89.0355,1.0,25.385,11111222 
WAVCIS,ioos:station:WAVCIS:CSI16:1,2009-11-02T10:45:00Z,29.4012,-89.0355,1.0,25.204,11111222 
WAVCIS,ioos:station:WAVCIS:CSI16:1,2009-11-02T11:00:00Z,29.4012,-89.0355,1.0,25.327,11111222 
WAVCIS,ioos:station:WAVCIS:CSI16:1,2009-11-02T11:15:00Z,29.4012,-89.0355,1.0,25.375,11111222 
WAVCIS,ioos:station:WAVCIS:CSI16:1,2009-11-02T11:30:00Z,29.4012,-89.0355,1.0,25.323,11111222 
WAVCIS,ioos:station:WAVCIS:CSI16:1,2009-11-02T11:45:00Z,29.4012,-89.0355,1.0,25.379,11111222 
WAVCIS,ioos:station:WAVCIS:CSI16:1,2009-11-02T12:00:00Z,29.4012,-89.0355,1.0,25.212,11111222 
WAVCIS,ioos:station:WAVCIS:CSI16:1,2009-11-02T12:15:00Z,29.4012,-89.0355,1.0,25.523,11111222 
WAVCIS,ioos:station:WAVCIS:CSI16:1,2009-11-02T12:30:00Z,29.4012,-89.0355,1.0,25.419,11111222 
WAVCIS,ioos:station:WAVCIS:CSI16:1,2009-11-02T12:45:00Z,29.4012,-89.0355,1.0,25.323,11111222 
WAVCIS,ioos:station:WAVCIS:CSI16:1,2009-11-02T13:00:00Z,29.4012,-89.0355,1.0,25.381,11111222 
WAVCIS,ioos:station:WAVCIS:CSI16:1,2009-11-02T13:15:00Z,29.4012,-89.0355,1.0,25.485,11111222 
WAVCIS,ioos:station:WAVCIS:CSI16:1,2009-11-02T13:30:00Z,29.4012,-89.0355,1.0,25.489,11111222 
WAVCIS,ioos:station:WAVCIS:CSI16:1,2009-11-02T13:45:00Z,29.4012,-89.0355,1.0,25.342,11111222 
WAVCIS,ioos:station:WAVCIS:CSI16:1,2009-11-02T14:00:00Z,29.4012,-89.0355,1.0,25.119,11111222 
WAVCIS,ioos:station:WAVCIS:CSI16:1,2009-11-02T14:15:00Z,29.4012,-89.0355,1.0,25.178,11111222 
WAVCIS,ioos:station:WAVCIS:CSI16:1,2009-11-02T14:30:00Z,29.4012,-89.0355,1.0,25.179,11111222 
WAVCIS,ioos:station:WAVCIS:CSI16:1,2009-11-02T14:45:00Z,29.4012,-89.0355,1.0,25.134,11111222 
WAVCIS,ioos:station:WAVCIS:CSI16:1,2009-11-02T15:00:00Z,29.4012,-89.0355,1.0,25.027,11111222 
WAVCIS,ioos:station:WAVCIS:CSI16:1,2009-11-02T15:15:00Z,29.4012,-89.0355,1.0,24.997,11111222 
WAVCIS,ioos:station:WAVCIS:CSI16:1,2009-11-02T15:30:00Z,29.4012,-89.0355,1.0,25.106,11111222 
WAVCIS,ioos:station:WAVCIS:CSI16:1,2009-11-02T15:45:00Z,29.4012,-89.0355,1.0,25.1,11111222 
WAVCIS,ioos:station:WAVCIS:CSI16:1,2009-11-02T16:00:00Z,29.4012,-89.0355,1.0,25.052,11111222 
WAVCIS,ioos:station:WAVCIS:CSI16:1,2009-11-02T16:15:00Z,29.4012,-89.0355,1.0,25.179,11111222 
WAVCIS,ioos:station:WAVCIS:CSI16:1,2009-11-02T16:30:00Z,29.4012,-89.0355,1.0,25.274,11111222 
WAVCIS,ioos:station:WAVCIS:CSI16:1,2009-11-02T16:45:00Z,29.4012,-89.0355,1.0,25.565,11111222 
WAVCIS,ioos:station:WAVCIS:CSI16:1,2009-11-02T17:00:00Z,29.4012,-89.0355,1.0,25.949,11111222 
WAVCIS,ioos:station:WAVCIS:CSI16:1,2009-11-02T17:15:00Z,29.4012,-89.0355,1.0,26.08,11111222 
WAVCIS,ioos:station:WAVCIS:CSI16:1,2009-11-02T17:30:00Z,29.4012,-89.0355,1.0,26.359,11111222 
WAVCIS,ioos:station:WAVCIS:CSI16:1,2009-11-02T17:45:00Z,29.4012,-89.0355,1.0,26.796,11111222 
WAVCIS,ioos:station:WAVCIS:CSI16:1,2009-11-02T18:00:00Z,29.4012,-89.0355,1.0,26.567,11111222 
WAVCIS,ioos:station:WAVCIS:CSI16:1,2009-11-02T18:15:00Z,29.4012,-89.0355,1.0,27.366,11111222 
WAVCIS,ioos:station:WAVCIS:CSI16:1,2009-11-02T18:30:00Z,29.4012,-89.0355,1.0,27.454,11111222 
WAVCIS,ioos:station:WAVCIS:CSI16:1,2009-11-02T18:45:00Z,29.4012,-89.0355,1.0,28.126,11111222 
WAVCIS,ioos:station:WAVCIS:CSI16:1,2009-11-02T19:00:00Z,29.4012,-89.0355,1.0,28.253,11111222 
WAVCIS,ioos:station:WAVCIS:CSI16:1,2009-11-02T19:15:00Z,29.4012,-89.0355,1.0,28.623,11111222 
WAVCIS,ioos:station:WAVCIS:CSI16:1,2009-11-02T19:30:00Z,29.4012,-89.0355,1.0,28.883,11111222 
WAVCIS,ioos:station:WAVCIS:CSI16:1,2009-11-02T19:45:00Z,29.4012,-89.0355,1.0,29.092,11111222 
WAVCIS,ioos:station:WAVCIS:CSI16:1,2009-11-02T20:00:00Z,29.4012,-89.0355,1.0,29.252,11111222 
WAVCIS,ioos:station:WAVCIS:CSI16:1,2009-11-02T20:15:00Z,29.4012,-89.0355,1.0,28.919,11111222 
WAVCIS,ioos:station:WAVCIS:CSI16:1,2009-11-02T20:30:00Z,29.4012,-89.0355,1.0,29.544,11111222 
WAVCIS,ioos:station:WAVCIS:CSI16:1,2009-11-02T20:45:00Z,29.4012,-89.0355,1.0,29.636,11111222 
WAVCIS,ioos:station:WAVCIS:CSI16:1,2009-11-02T21:00:00Z,29.4012,-89.0355,1.0,29.708,11111222 
WAVCIS,ioos:station:WAVCIS:CSI16:1,2009-11-02T21:15:00Z,29.4012,-89.0355,1.0,29.789,11111222 
WAVCIS,ioos:station:WAVCIS:CSI16:1,2009-11-02T21:30:00Z,29.4012,-89.0355,1.0,29.847,11111222 
WAVCIS,ioos:station:WAVCIS:CSI16:1,2009-11-02T21:45:00Z,29.4012,-89.0355,1.0,29.873,11111222 
WAVCIS,ioos:station:WAVCIS:CSI16:1,2009-11-02T22:00:00Z,29.4012,-89.0355,1.0,29.926,11111222 
WAVCIS,ioos:station:WAVCIS:CSI16:1,2009-11-02T22:15:00Z,29.4012,-89.0355,1.0,29.997,11111222 
WAVCIS,ioos:station:WAVCIS:CSI16:1,2009-11-02T22:30:00Z,29.4012,-89.0355,1.0,29.5,11111222 
WAVCIS,ioos:station:WAVCIS:CSI16:1,2009-11-02T22:45:00Z,29.4012,-89.0355,1.0,29.234,11111222 
WAVCIS,ioos:station:WAVCIS:CSI16:1,2009-11-02T23:00:00Z,29.4012,-89.0355,1.0,29.024,11111222 
WAVCIS,ioos:station:WAVCIS:CSI16:1,2009-11-02T23:15:00Z,29.4012,-89.0355,1.0,29.25,11111222 
WAVCIS,ioos:station:WAVCIS:CSI16:1,2009-11-02T23:30:00Z,29.4012,-89.0355,1.0,29.846,11111222 
WAVCIS,ioos:station:WAVCIS:CSI16:1,2009-11-02T23:45:00Z,29.4012,-89.0355,1.0,29.318,11111222 
WAVCIS,ioos:station:WAVCIS:CSI16:1,2009-11-03T00:00:00Z,29.4012,-89.0355,1.0,29.341,11111222 
WAVCIS,ioos:station:WAVCIS:CSI16:1,2009-11-03T00:15:00Z,29.4012,-89.0355,1.0,29.334,11111222 
WAVCIS,ioos:station:WAVCIS:CSI16:1,2009-11-03T00:30:00Z,29.4012,-89.0355,1.0,29.182,11111222 
WAVCIS,ioos:station:WAVCIS:CSI16:1,2009-11-03T00:45:00Z,29.4012,-89.0355,1.0,29.422,11111222 
WAVCIS,ioos:station:WAVCIS:CSI16:1,2009-11-03T01:00:00Z,29.4012,-89.0355,1.0,29.548,11111222 
WAVCIS,ioos:station:WAVCIS:CSI16:1,2009-11-03T01:15:00Z,29.4012,-89.0355,1.0,29.508,11111222 
WAVCIS,ioos:station:WAVCIS:CSI16:1,2009-11-03T01:30:00Z,29.4012,-89.0355,1.0,28.431,11111222 
WAVCIS,ioos:station:WAVCIS:CSI16:1,2009-11-03T01:45:00Z,29.4012,-89.0355,1.0,29.315,11111222 
WAVCIS,ioos:station:WAVCIS:CSI16:1,2009-11-03T02:00:00Z,29.4012,-89.0355,1.0,29.212,11111222 
WAVCIS,ioos:station:WAVCIS:CSI16:1,2009-11-03T02:15:00Z,29.4012,-89.0355,1.0,29.277,11111222 
WAVCIS,ioos:station:WAVCIS:CSI16:1,2009-11-03T02:30:00Z,29.4012,-89.0355,1.0,29.063,11111222 
WAVCIS,ioos:station:WAVCIS:CSI16:1,2009-11-03T02:45:00Z,29.4012,-89.0355,1.0,28.915,11111222 
WAVCIS,ioos:station:WAVCIS:CSI16:1,2009-11-03T03:00:00Z,29.4012,-89.0355,1.0,28.784,11111222 
WAVCIS,ioos:station:WAVCIS:CSI16:1,2009-11-03T03:15:00Z,29.4012,-89.0355,1.0,28.963,11111222 
WAVCIS,ioos:station:WAVCIS:CSI16:1,2009-11-03T03:30:00Z,29.4012,-89.0355,1.0,29.285,11111222 
WAVCIS,ioos:station:WAVCIS:CSI16:1,2009-11-03T03:45:00Z,29.4012,-89.0355,1.0,29.772,11111222 
WAVCIS,ioos:station:WAVCIS:CSI16:1,2009-11-03T04:00:00Z,29.4012,-89.0355,1.0,29.935,11111222 
WAVCIS,ioos:station:WAVCIS:CSI16:1,2009-11-03T04:15:00Z,29.4012,-89.0355,1.0,30.008,11111222 
WAVCIS,ioos:station:WAVCIS:CSI16:1,2009-11-03T04:30:00Z,29.4012,-89.0355,1.0,30.131,11111222 
WAVCIS,ioos:station:WAVCIS:CSI16:1,2009-11-03T04:45:00Z,29.4012,-89.0355,1.0,30.025,11111222 
WAVCIS,ioos:station:WAVCIS:CSI16:1,2009-11-03T05:00:00Z,29.4012,-89.0355,1.0,30.157,11111222 
WAVCIS,ioos:station:WAVCIS:CSI16:1,2009-11-03T05:15:00Z,29.4012,-89.0355,1.0,29.922,11111222 
WAVCIS,ioos:station:WAVCIS:CSI16:1,2009-11-03T05:30:00Z,29.4012,-89.0355,1.0,29.612,11111222 
WAVCIS,ioos:station:WAVCIS:CSI16:1,2009-11-03T05:45:00Z,29.4012,-89.0355,1.0,29.585,11111222 
WAVCIS,ioos:station:WAVCIS:CSI16:1,2009-11-03T06:00:00Z,29.4012,-89.0355,1.0,29.26,11111222 
WAVCIS,ioos:station:WAVCIS:CSI16:1,2009-11-03T06:15:00Z,29.4012,-89.0355,1.0,29.714,11111222 
WAVCIS,ioos:station:WAVCIS:CSI16:1,2009-11-03T06:30:00Z,29.4012,-89.0355,1.0,29.496,11111222 
WAVCIS,ioos:station:WAVCIS:CSI16:1,2009-11-03T06:45:00Z,29.4012,-89.0355,1.0,29.498,11111222 
WAVCIS,ioos:station:WAVCIS:CSI16:1,2009-11-03T07:00:00Z,29.4012,-89.0355,1.0,27.34,11111222 
WAVCIS,ioos:station:WAVCIS:CSI16:1,2009-11-03T07:15:00Z,29.4012,-89.0355,1.0,26.639,11111222 
WAVCIS,ioos:station:WAVCIS:CSI16:1,2009-11-03T07:30:00Z,29.4012,-89.0355,1.0,26.361,11111222 
WAVCIS,ioos:station:WAVCIS:CSI16:1,2009-11-03T07:45:00Z,29.4012,-89.0355,1.0,25.947,11111222 
WAVCIS,ioos:station:WAVCIS:CSI16:1,2009-11-03T08:00:00Z,29.4012,-89.0355,1.0,25.745,11111222 
WAVCIS,ioos:station:WAVCIS:CSI16:1,2009-11-03T08:15:00Z,29.4012,-89.0355,1.0,25.638,11111222 
WAVCIS,ioos:station:WAVCIS:CSI16:1,2009-11-03T08:30:00Z,29.4012,-89.0355,1.0,25.66,11111222 
WAVCIS,ioos:station:WAVCIS:CSI16:1,2009-11-03T08:45:00Z,29.4012,-89.0355,1.0,25.823,11111222 
WAVCIS,ioos:station:WAVCIS:CSI16:1,2009-11-03T09:00:00Z,29.4012,-89.0355,1.0,25.892,11111222 
WAVCIS,ioos:station:WAVCIS:CSI16:1,2009-11-03T09:15:00Z,29.4012,-89.0355,1.0,26.094,11111222 
WAVCIS,ioos:station:WAVCIS:CSI16:1,2009-11-03T09:30:00Z,29.4012,-89.0355,1.0,26.175,11111222 
WAVCIS,ioos:station:WAVCIS:CSI16:1,2009-11-03T09:45:00Z,29.4012,-89.0355,1.0,26.365,11111222 
WAVCIS,ioos:station:WAVCIS:CSI16:1,2009-11-03T10:00:00Z,29.4012,-89.0355,1.0,26.264,11111222 
WAVCIS,ioos:station:WAVCIS:CSI16:1,2009-11-03T10:15:00Z,29.4012,-89.0355,1.0,26.316,11111222 
WAVCIS,ioos:station:WAVCIS:CSI16:1,2009-11-03T10:30:00Z,29.4012,-89.0355,1.0,26.383,11111222 
WAVCIS,ioos:station:WAVCIS:CSI16:1,2009-11-03T10:45:00Z,29.4012,-89.0355,1.0,26.123,11111222 
WAVCIS,ioos:station:WAVCIS:CSI16:1,2009-11-03T11:00:00Z,29.4012,-89.0355,1.0,26.003,11111222 
WAVCIS,ioos:station:WAVCIS:CSI16:1,2009-11-03T11:15:00Z,29.4012,-89.0355,1.0,26.047,11111222 
WAVCIS,ioos:station:WAVCIS:CSI16:1,2009-11-03T11:30:00Z,29.4012,-89.0355,1.0,25.692,11111222 
WAVCIS,ioos:station:WAVCIS:CSI16:1,2009-11-03T11:45:00Z,29.4012,-89.0355,1.0,25.691,11111222 
WAVCIS,ioos:station:WAVCIS:CSI16:1,2009-11-03T12:00:00Z,29.4012,-89.0355,1.0,25.574,11111222 
WAVCIS,ioos:station:WAVCIS:CSI16:1,2009-11-03T12:15:00Z,29.4012,-89.0355,1.0,26.065,11111222 
WAVCIS,ioos:station:WAVCIS:CSI16:1,2009-11-03T12:30:00Z,29.4012,-89.0355,1.0,26.163,11111222 
WAVCIS,ioos:station:WAVCIS:CSI16:1,2009-11-03T12:45:00Z,29.4012,-89.0355,1.0,26.578,11111222 
WAVCIS,ioos:station:WAVCIS:CSI16:1,2009-11-03T13:00:00Z,29.4012,-89.0355,1.0,26.542,11111222 
WAVCIS,ioos:station:WAVCIS:CSI16:1,2009-11-03T13:15:00Z,29.4012,-89.0355,1.0,26.764,11111222 
WAVCIS,ioos:station:WAVCIS:CSI16:1,2009-11-03T13:30:00Z,29.4012,-89.0355,1.0,26.586,11111222 
WAVCIS,ioos:station:WAVCIS:CSI16:1,2009-11-03T13:45:00Z,29.4012,-89.0355,1.0,26.787,11111222 
WAVCIS,ioos:station:WAVCIS:CSI16:1,2009-11-03T14:00:00Z,29.4012,-89.0355,1.0,26.523,11111222 
WAVCIS,ioos:station:WAVCIS:CSI16:1,2009-11-03T14:15:00Z,29.4012,-89.0355,1.0,26.463,11111222 
WAVCIS,ioos:station:WAVCIS:CSI16:1,2009-11-03T14:30:00Z,29.4012,-89.0355,1.0,26.435,11111222 
WAVCIS,ioos:station:WAVCIS:CSI16:1,2009-11-03T14:45:00Z,29.4012,-89.0355,1.0,26.254,11111222 
WAVCIS,ioos:station:WAVCIS:CSI16:1,2009-11-03T15:00:00Z,29.4012,-89.0355,1.0,26.643,11111222 
WAVCIS,ioos:station:WAVCIS:CSI16:1,2009-11-03T15:15:00Z,29.4012,-89.0355,1.0,26.663,11111222 